Location: Newark
(30.1000°N, 109.4667°E)
Time: 02:12:36
(UTC+00:00)

SR - Pass Details

Date: 18 February 2020
Orbit: 578 x 878 km, 66.7° (Epoch: 06 April)

Event Time Altitude Azimuth Distance (km) Brightness Sun altitude
Rises 07:39:28 0° 180° (S) 3,374 ? 32.6°
Reaches altitude 10° 07:42:04 10° 172° (S) 2,472 ? 32.1°
Maximum altitude 07:47:14 35° 108° (ESE) 1,380 ? 31.3°
Drops below altitude 10° 07:52:31 10° 45° (NE) 2,528 ? 30.4°
Sets 07:55:12 0° 36° (NE) 3,460 ? 29.9°
